STARLINK-3401, 51465

Orbit data source: Space-Track

STARLINK-3401, 51465 is a payload satellite owned by SpaceX/Seattle (US) in LEO that was launched on Thu, 03 Feb 2022 UTC via an FALCON 9 launch vehicle from the Air Force Eastern Test Range (AFETR). Payload-class satellites include a variety of spacecraft equipped with specific instruments for various scientific and technological missions. These include communications satellites like Starlink; space stations such as the ISS; scientific satellites like the Hubble; Earth observation satellites from companies like Planet Labs, Umbra, and HawkEye 360; GPS; miniature CubeSats for education and research; and military/defense satellites.

Loading next visibility...
Identifier
51465, 2022-010K
Orbit
LEO
Country
Flag of USUS
Related business
Manufacturer
SpaceX/Seattle
Mission
Operational Commercial Communications
Bus & Motor
STARLINK, Unknown motor
Mass
297 kg wet, ~275 kg dry
Launch date (UTC)
2022-02-03 (4 years ago)
Launch vehicle
FALCON 9
Launch site
Air Force Eastern Test Range (AFETR)
Object type
Payload
Rocket body
Debris
Shape & HBR
Box + 1 Pan, 10.1 m
Radar Cross Section
13.562 m², Large (>1 m²)

Expand to show TLE details & history
Last TLE update: 2 days ago

TLE from 2 days ago
0 STARLINK-3401
1 51465U 22010K   26171.29478852  .00000861  00000-0  72182-4 0  9997
2 51465  53.1603 178.3957 0001225  90.7865 269.3267 15.08841304242812
Epoch: 2026-06-20T07:04Z
TLE epoch observation values (Epoch: 2026-06-20T07:04:29.728Z)
Latitude
0.00001°
Longitude
163.76037°
Altitude
540.641 km
Speed
7.593 km/s
True Right ascension
11h 53m 34s
True Declination
0° 00' 00"
Sunlit
Object was in daylight at epoch
Visualization orbit readout
Latitude
Unknown
Longitude
Unknown
Altitude
Unknown
Speed
Unknown
Apparent Right ascension
Unknown
Apparent Declination
Unknown
Sunlit
N/A
Visualization observer readout
Local Sidereal Time
02:13:18
Azimuth
Unknown
Elevation
Unknown
Doppler factor
Unknown
Orbital elements
Apogee altitude
540.841 km
Perigee altitude
539.146 km
Semi-major axis
6,918.13 km
Eccentricity
0.00012
Inclination
53.1603°
RAAN
178.3957°
Arg. of periapsis
90.7865°
True anomaly
269.31266°
Mean anomaly
269.3267°
Eccentric anomaly
269.31968°
Mean motion
3.7719 °/min
Orbital period
95.44 mins
BSTAR
0.000072182
Loading maneuver chart data...
Computing Atmospheric mass density...

Documentation

Showing up to 5 results
|